DLH51E EDDK-LOWW

Flight info

Callsign DLH51E
Flight time 1h 25m
Altitude 35000
Route KUMIK1R KUMIK L603 TESGA DCT ESATI DCT BARSU DCT EKSOS DCT LULAR DCT RUDAP DCT BUDEX BUDEX2W
Aircraft A320/M-SDE3FGHIRWY/LB1

Departure

Time 2026-05-06 18:44
Airport Cologne Bonn Airport (EDDK)

Arrival

Time 2026-05-06 20:10
Airport Vienna International Airport (LOWW)
Time Latitude Longitude Altitude Speed Heading
2026-05-06 18:04 50.87833 7.12457 232 ft 0 kts 288°
2026-05-06 18:26 50.87832 7.12462 232 ft 3 kts 288°
2026-05-06 18:26 50.87824 7.12502 241 ft 4 kts 292°
2026-05-06 18:27 50.87812 7.12539 233 ft 4 kts 313°
2026-05-06 18:27 50.87792 7.12560 236 ft 4 kts
2026-05-06 18:27 50.87780 7.12557 236 ft 1 kts 18°
2026-05-06 18:27 50.87779 7.12557 236 ft 0 kts 18°
2026-05-06 18:32 50.87783 7.12559 237 ft 2 kts 22°
2026-05-06 18:32 50.87786 7.12642 234 ft 11 kts 114°
2026-05-06 18:32 50.87745 7.12732 232 ft 9 kts 136°
2026-05-06 18:32 50.87713 7.12780 232 ft 5 kts 137°
2026-05-06 18:33 50.87696 7.12805 232 ft 4 kts 137°
2026-05-06 18:33 50.87676 7.12834 232 ft 3 kts 137°
2026-05-06 18:33 50.87648 7.12875 232 ft 10 kts 137°
2026-05-06 18:33 50.87581 7.12971 232 ft 13 kts 137°
2026-05-06 18:34 50.87518 7.13062 232 ft 12 kts 138°
2026-05-06 18:34 50.87461 7.13144 232 ft 10 kts 137°
2026-05-06 18:34 50.87412 7.13216 232 ft 10 kts 138°
2026-05-06 18:34 50.87352 7.13300 232 ft 11 kts 138°
2026-05-06 18:35 50.87297 7.13382 232 ft 12 kts 137°
2026-05-06 18:35 50.87210 7.13509 236 ft 22 kts 137°
2026-05-06 18:35 50.87082 7.13693 241 ft 25 kts 137°
2026-05-06 18:35 50.87018 7.13787 243 ft 9 kts 137°
2026-05-06 18:36 50.86983 7.13838 244 ft 5 kts 137°
2026-05-06 18:36 50.86971 7.13854 245 ft 0 kts 137°
2026-05-06 18:36 50.86952 7.13882 247 ft 10 kts 137°
2026-05-06 18:37 50.86916 7.13934 251 ft 4 kts 137°
2026-05-06 18:37 50.86910 7.13942 251 ft 1 kts 137°
2026-05-06 18:37 50.86850 7.14029 255 ft 21 kts 138°
2026-05-06 18:37 50.86750 7.14131 255 ft 15 kts 162°
2026-05-06 18:38 50.86679 7.14215 259 ft 11 kts 137°
2026-05-06 18:38 50.86618 7.14303 261 ft 13 kts 137°
2026-05-06 18:38 50.86539 7.14418 263 ft 17 kts 137°
2026-05-06 18:38 50.86451 7.14546 269 ft 18 kts 138°
2026-05-06 18:39 50.86357 7.14681 274 ft 19 kts 137°
2026-05-06 18:39 50.86240 7.14853 281 ft 28 kts 137°
2026-05-06 18:39 50.86099 7.15056 287 ft 27 kts 137°
2026-05-06 18:40 50.85831 7.15443 297 ft 26 kts 137°
2026-05-06 18:40 50.85690 7.15645 301 ft 29 kts 138°
2026-05-06 18:40 50.85544 7.15859 306 ft 26 kts 137°
2026-05-06 18:40 50.85436 7.16015 308 ft 20 kts 136°
2026-05-06 18:41 50.85357 7.16148 308 ft 15 kts 122°
2026-05-06 18:41 50.85335 7.16297 308 ft 13 kts 85°
2026-05-06 18:41 50.85359 7.16405 310 ft 4 kts 58°
2026-05-06 18:41 50.85375 7.16437 308 ft 5 kts 47°
2026-05-06 18:42 50.85420 7.16491 308 ft 8 kts 29°
2026-05-06 18:42 50.85476 7.16515 309 ft 9 kts
2026-05-06 18:42 50.85533 7.16514 308 ft 8 kts 353°
2026-05-06 18:42 50.85592 7.16467 308 ft 11 kts 316°
2026-05-06 18:43 50.85605 7.16447 309 ft 0 kts 316°
2026-05-06 18:43 50.85606 7.16446 309 ft 3 kts 316°
2026-05-06 18:44 50.85824 7.16130 306 ft 80 kts 318°
2026-05-06 18:44 50.86392 7.15310 285 ft 138 kts 317°
2026-05-06 18:44 50.87199 7.14151 570 ft 161 kts 318°
2026-05-06 18:44 50.88045 7.12977 1286 ft 166 kts 322°
2026-05-06 18:45 50.89018 7.11922 1886 ft 176 kts 330°
2026-05-06 18:45 50.90251 7.11419 2196 ft 198 kts
2026-05-06 18:45 50.91565 7.12224 2744 ft 207 kts 24°
2026-05-06 18:45 50.92847 7.13295 3541 ft 210 kts 33°
2026-05-06 18:46 50.93874 7.15014 4168 ft 227 kts 58°
2026-05-06 18:46 50.94631 7.17371 4597 ft 252 kts 62°
2026-05-06 18:46 50.95432 7.19941 5256 ft 265 kts 62°
2026-05-06 18:46 50.96270 7.22626 6137 ft 270 kts 62°
2026-05-06 18:47 50.97102 7.25282 6984 ft 274 kts 62°
2026-05-06 18:47 50.97955 7.28000 7884 ft 276 kts 61°
2026-05-06 18:47 50.98818 7.30736 8785 ft 278 kts 61°
2026-05-06 18:47 50.99689 7.33495 9714 ft 281 kts 60°
2026-05-06 18:48 51.00577 7.36321 10258 ft 297 kts 62°
2026-05-06 18:48 51.01270 7.39554 10545 ft 322 kts 76°
2026-05-06 18:48 51.01483 7.43163 11140 ft 334 kts 89°
2026-05-06 18:48 51.01165 7.46857 11855 ft 342 kts 103°
2026-05-06 18:49 51.00457 7.50553 12602 ft 347 kts 106°
2026-05-06 18:49 50.99733 7.54239 13327 ft 352 kts 106°
2026-05-06 18:49 50.99009 7.57925 13968 ft 357 kts 108°
2026-05-06 18:49 50.98258 7.61758 14574 ft 362 kts 108°
2026-05-06 18:50 50.97507 7.65592 15201 ft 366 kts 108°
2026-05-06 18:50 50.96746 7.69459 15835 ft 370 kts 108°
2026-05-06 18:50 50.95970 7.73381 16471 ft 373 kts 108°
2026-05-06 18:50 50.95199 7.77274 17082 ft 377 kts 108°
2026-05-06 18:51 50.94319 7.81259 17710 ft 380 kts 115°
2026-05-06 18:51 50.93046 7.84936 18296 ft 382 kts 125°
2026-05-06 18:51 50.91568 7.88463 18822 ft 386 kts 125°
2026-05-06 18:51 50.90079 7.92015 19375 ft 388 kts 125°
2026-05-06 18:52 50.88580 7.95586 19932 ft 390 kts 125°
2026-05-06 18:52 50.87074 7.99175 20483 ft 393 kts 125°
2026-05-06 18:52 50.85557 8.02789 21010 ft 395 kts 126°
2026-05-06 18:52 50.84030 8.06428 21541 ft 398 kts 126°
2026-05-06 18:53 50.82498 8.10082 22061 ft 401 kts 126°
2026-05-06 18:53 50.80951 8.13771 22575 ft 403 kts 126°
2026-05-06 18:53 50.79395 8.17470 23093 ft 406 kts 126°
2026-05-06 18:53 50.77847 8.21144 23545 ft 408 kts 126°
2026-05-06 18:54 50.76266 8.24884 23972 ft 410 kts 126°
2026-05-06 18:54 50.74673 8.28636 24396 ft 412 kts 126°
2026-05-06 18:54 50.73071 8.32404 24824 ft 414 kts 126°
2026-05-06 18:54 50.71434 8.36145 25243 ft 414 kts 131°
2026-05-06 18:55 50.69385 8.39301 25632 ft 412 kts 143°
2026-05-06 18:55 50.67165 8.42178 26046 ft 414 kts 143°
2026-05-06 18:55 50.64934 8.45049 26475 ft 414 kts 144°
2026-05-06 18:55 50.62697 8.47911 26909 ft 415 kts 144°
2026-05-06 18:56 50.60453 8.50775 27319 ft 416 kts 144°
2026-05-06 18:56 50.58198 8.53647 27720 ft 418 kts 144°
2026-05-06 18:56 50.55931 8.56532 28110 ft 419 kts 143°
2026-05-06 18:56 50.53662 8.59418 28527 ft 420 kts 143°
2026-05-06 18:57 50.51391 8.62311 28934 ft 421 kts 143°
2026-05-06 18:57 50.49108 8.65219 29319 ft 423 kts 143°
2026-05-06 18:57 50.46813 8.68144 29690 ft 424 kts 143°
2026-05-06 18:57 50.44529 8.71046 30024 ft 425 kts 143°
2026-05-06 18:58 50.42223 8.73969 30305 ft 427 kts 143°
2026-05-06 18:58 50.39903 8.76902 30574 ft 429 kts 143°
2026-05-06 18:58 50.37570 8.79845 30838 ft 431 kts 143°
2026-05-06 18:58 50.35230 8.82795 31098 ft 433 kts 144°
2026-05-06 18:59 50.32909 8.85722 31387 ft 434 kts 144°
2026-05-06 18:59 50.30570 8.88678 31759 ft 433 kts 143°
2026-05-06 18:59 50.28200 8.91668 32156 ft 431 kts 144°
2026-05-06 18:59 50.25867 8.94606 32529 ft 430 kts 144°
2026-05-06 19:00 50.23532 8.97535 32881 ft 430 kts 144°
2026-05-06 19:00 50.21198 9.00449 33237 ft 429 kts 144°
2026-05-06 19:00 50.18866 9.03356 33596 ft 429 kts 145°
2026-05-06 19:00 50.16538 9.06257 33934 ft 428 kts 145°
2026-05-06 19:01 50.14211 9.09154 34209 ft 428 kts 145°
2026-05-06 19:01 50.11881 9.12062 34452 ft 429 kts 144°
2026-05-06 19:01 50.09650 9.15204 34567 ft 437 kts 136°
2026-05-06 19:01 50.07756 9.18955 34698 ft 445 kts 127°
2026-05-06 19:02 50.06280 9.23247 34795 ft 456 kts 117°
2026-05-06 19:02 50.05297 9.27998 34822 ft 468 kts 106°
2026-05-06 19:02 50.04719 9.33018 34820 ft 475 kts 104°
2026-05-06 19:03 50.03578 9.43184 34815 ft 477 kts 104°
2026-05-06 19:03 50.02412 9.53266 34810 ft 476 kts 104°
2026-05-06 19:04 50.01225 9.63393 34797 ft 477 kts 105°
2026-05-06 19:04 50.00034 9.73562 34809 ft 479 kts 105°
2026-05-06 19:05 49.98841 9.83749 34806 ft 479 kts 105°
2026-05-06 19:05 49.97627 9.93996 34806 ft 479 kts 105°
2026-05-06 19:06 49.96419 10.04087 34807 ft 479 kts 105°
2026-05-06 19:06 49.95188 10.14255 34784 ft 479 kts 105°
2026-05-06 19:07 49.93943 10.24424 34782 ft 480 kts 105°
2026-05-06 19:07 49.92693 10.34622 34790 ft 481 kts 105°
2026-05-06 19:08 49.90756 10.44433 34793 ft 474 kts 117°
2026-05-06 19:08 49.88297 10.53923 34772 ft 474 kts 117°
2026-05-06 19:09 49.85863 10.63353 34792 ft 475 kts 117°
2026-05-06 19:09 49.83396 10.72842 34799 ft 475 kts 117°
2026-05-06 19:10 49.80915 10.82325 34810 ft 475 kts 117°
2026-05-06 19:10 49.78437 10.91801 34783 ft 475 kts 117°
2026-05-06 19:11 49.75927 11.01299 34807 ft 478 kts 118°
2026-05-06 19:11 49.73404 11.10798 34809 ft 478 kts 118°
2026-05-06 19:12 49.70898 11.20232 34809 ft 478 kts 118°
2026-05-06 19:12 49.68368 11.29728 34816 ft 478 kts 118°
2026-05-06 19:13 49.65833 11.39213 34803 ft 478 kts 118°
2026-05-06 19:13 49.63510 11.48889 34797 ft 483 kts 114°
2026-05-06 19:14 49.61550 11.58818 34792 ft 485 kts 112°
2026-05-06 19:14 49.59625 11.68753 34796 ft 483 kts 113°
2026-05-06 19:15 49.57608 11.78530 34771 ft 482 kts 114°
2026-05-06 19:15 49.55504 11.88336 34771 ft 483 kts 114°
2026-05-06 19:16 49.53395 11.98159 34775 ft 484 kts 114°
2026-05-06 19:16 49.51300 12.08005 34781 ft 484 kts 114°
2026-05-06 19:17 49.49203 12.17860 34760 ft 485 kts 114°
2026-05-06 19:17 49.47100 12.27653 34760 ft 486 kts 114°
2026-05-06 19:18 49.44971 12.37522 34768 ft 486 kts 114°
2026-05-06 19:18 49.42831 12.47386 34791 ft 487 kts 114°
2026-05-06 19:19 49.40672 12.57249 34785 ft 487 kts 114°
2026-05-06 19:19 49.38510 12.67099 34786 ft 487 kts 115°
2026-05-06 19:20 49.36351 12.76880 34772 ft 487 kts 115°
2026-05-06 19:20 49.34059 12.86603 34779 ft 482 kts 117°
2026-05-06 19:21 49.31666 12.96181 34779 ft 481 kts 117°
2026-05-06 19:21 49.29273 13.05739 34783 ft 480 kts 117°
2026-05-06 19:22 49.26911 13.15295 34778 ft 480 kts 117°
2026-05-06 19:22 49.24546 13.24853 34777 ft 480 kts 117°
2026-05-06 19:23 49.22129 13.34276 34776 ft 478 kts 118°
2026-05-06 19:23 49.19576 13.43656 34743 ft 478 kts 119°
2026-05-06 19:24 49.16997 13.53031 34745 ft 479 kts 118°
2026-05-06 19:24 49.14447 13.62424 34744 ft 479 kts 118°
2026-05-06 19:25 49.11912 13.71764 34755 ft 479 kts 119°
2026-05-06 19:25 49.09356 13.81158 34711 ft 479 kts 119°
2026-05-06 19:26 49.06782 13.90531 34660 ft 479 kts 119°
2026-05-06 19:26 49.05487 13.95223 34182 ft 480 kts 120°
2026-05-06 19:26 49.04193 13.99911 33706 ft 480 kts 120°
2026-05-06 19:26 49.02898 14.04596 33144 ft 481 kts 120°
2026-05-06 19:27 49.01600 14.09291 32608 ft 482 kts 119°
2026-05-06 19:27 49.00294 14.14002 32082 ft 482 kts 119°
2026-05-06 19:27 48.98988 14.18708 31564 ft 483 kts 118°
2026-05-06 19:27 48.97673 14.23432 31008 ft 486 kts 119°
2026-05-06 19:28 48.96348 14.28169 30731 ft 488 kts 119°
2026-05-06 19:28 48.93163 14.37037 30264 ft 473 kts 133°
2026-05-06 19:28 48.91189 14.41047 29150 ft 475 kts 133°
2026-05-06 19:29 48.89213 14.44981 28856 ft 460 kts 134°
2026-05-06 19:29 48.87298 14.48760 28714 ft 443 kts 134°
2026-05-06 19:29 48.85445 14.52394 28583 ft 427 kts 134°
2026-05-06 19:29 48.83654 14.55898 28434 ft 413 kts 135°
2026-05-06 19:30 48.81925 14.59280 28198 ft 400 kts 135°
2026-05-06 19:30 48.80232 14.62588 27772 ft 394 kts 135°
2026-05-06 19:30 48.78558 14.65852 27314 ft 390 kts 135°
2026-05-06 19:30 48.76919 14.69045 26850 ft 386 kts 135°
2026-05-06 19:31 48.75282 14.72244 26372 ft 383 kts 135°
2026-05-06 19:31 48.73665 14.75418 26035 ft 376 kts 135°
2026-05-06 19:31 48.70502 14.81614 25242 ft 368 kts 135°
2026-05-06 19:32 48.68936 14.84659 24832 ft 365 kts 135°
2026-05-06 19:32 48.67380 14.87680 24426 ft 362 kts 135°
2026-05-06 19:32 48.65837 14.90675 24026 ft 359 kts 135°
2026-05-06 19:32 48.64307 14.93645 23605 ft 357 kts 135°
2026-05-06 19:33 48.62787 14.96586 23197 ft 353 kts 135°
2026-05-06 19:33 48.61300 14.99463 22737 ft 350 kts 135°
2026-05-06 19:33 48.59841 15.02398 22278 ft 352 kts 129°
2026-05-06 19:33 48.58709 15.05709 21814 ft 358 kts 117°
2026-05-06 19:34 48.57995 15.09335 21374 ft 361 kts 110°
2026-05-06 19:34 48.57375 15.12996 20941 ft 359 kts 110°
2026-05-06 19:34 48.56754 15.16634 20514 ft 357 kts 110°
2026-05-06 19:34 48.56131 15.20261 20084 ft 356 kts 110°
2026-05-06 19:35 48.55721 15.22645 19801 ft 354 kts 110°
2026-05-06 19:35 48.55105 15.26210 19378 ft 345 kts 111°
2026-05-06 19:35 48.54508 15.29654 18968 ft 334 kts 111°
2026-05-06 19:35 48.53743 15.34069 18410 ft 322 kts 110°
2026-05-06 19:36 48.53181 15.37295 18000 ft 315 kts 110°
2026-05-06 19:36 48.52629 15.40452 17554 ft 308 kts 110°
2026-05-06 19:36 48.52089 15.43536 17102 ft 301 kts 111°
2026-05-06 19:36 48.51663 15.45500 16827 ft 294 kts 118°
2026-05-06 19:37 48.50697 15.48123 16727 ft 279 kts 135°
2026-05-06 19:37 48.49298 15.50045 16740 ft 268 kts 155°
2026-05-06 19:37 48.47596 15.51008 16739 ft 258 kts 176°
2026-05-06 19:37 48.45831 15.50981 16745 ft 253 kts 195°
2026-05-06 19:38 48.44205 15.50067 16749 ft 250 kts 212°
2026-05-06 19:38 48.42872 15.48415 16742 ft 249 kts 229°
2026-05-06 19:38 48.41958 15.46193 16746 ft 252 kts 246°
2026-05-06 19:38 48.41570 15.43610 16742 ft 258 kts 264°
2026-05-06 19:39 48.41601 15.40894 16743 ft 261 kts 269°
2026-05-06 19:39 48.41751 15.38168 16750 ft 262 kts 271°
2026-05-06 19:39 48.41943 15.35445 16742 ft 262 kts 271°
2026-05-06 19:39 48.42138 15.32754 16751 ft 262 kts 271°
2026-05-06 19:40 48.42329 15.30034 16753 ft 262 kts 272°
2026-05-06 19:40 48.42792 15.27362 16749 ft 269 kts 289°
2026-05-06 19:40 48.43862 15.24996 16767 ft 280 kts 309°
2026-05-06 19:40 48.45482 15.23308 16751 ft 290 kts 332°
2026-05-06 19:41 48.47477 15.22641 16747 ft 301 kts 356°
2026-05-06 19:41 48.49549 15.23217 16753 ft 309 kts 22°
2026-05-06 19:41 48.51329 15.25014 16754 ft 310 kts 48°
2026-05-06 19:41 48.52479 15.27721 16747 ft 305 kts 74°
2026-05-06 19:42 48.52822 15.30863 16731 ft 313 kts 97°
2026-05-06 19:42 48.52700 15.34207 16747 ft 323 kts 99°
2026-05-06 19:42 48.52495 15.37594 16748 ft 325 kts 100°
2026-05-06 19:42 48.52260 15.40988 16747 ft 326 kts 101°
2026-05-06 19:43 48.52021 15.44340 16744 ft 326 kts 100°
2026-05-06 19:43 48.51796 15.47741 16743 ft 326 kts 100°
2026-05-06 19:43 48.51594 15.51151 16744 ft 326 kts 99°
2026-05-06 19:43 48.51405 15.54560 16743 ft 326 kts 99°
2026-05-06 19:44 48.51217 15.57972 16744 ft 327 kts 99°
2026-05-06 19:44 48.51027 15.61385 16746 ft 326 kts 99°
2026-05-06 19:44 48.50837 15.64794 16743 ft 326 kts 99°
2026-05-06 19:44 48.50646 15.68185 16466 ft 324 kts 99°
2026-05-06 19:45 48.50453 15.71555 16139 ft 322 kts 99°
2026-05-06 19:45 48.50260 15.74914 15825 ft 321 kts 99°
2026-05-06 19:45 48.50067 15.78250 15539 ft 318 kts 99°
2026-05-06 19:45 48.49875 15.81519 15247 ft 317 kts 99°
2026-05-06 19:46 48.49680 15.84817 14955 ft 315 kts 99°
2026-05-06 19:46 48.49484 15.88095 14671 ft 313 kts 99°
2026-05-06 19:46 48.49287 15.91351 14397 ft 311 kts 99°
2026-05-06 19:46 48.49091 15.94576 14147 ft 307 kts 99°
2026-05-06 19:47 48.48902 15.97735 14019 ft 298 kts 99°
2026-05-06 19:47 48.48715 16.00812 13905 ft 291 kts 99°
2026-05-06 19:47 48.48531 16.03816 13781 ft 286 kts 99°
2026-05-06 19:47 48.48350 16.06781 13742 ft 283 kts 99°
2026-05-06 19:48 48.48167 16.09702 13743 ft 275 kts 101°
2026-05-06 19:48 48.47651 16.12400 13380 ft 270 kts 124°
2026-05-06 19:48 48.46451 16.14510 12991 ft 264 kts 148°
2026-05-06 19:48 48.44822 16.15688 12594 ft 259 kts 171°
2026-05-06 19:49 48.43049 16.16185 12205 ft 261 kts 171°
2026-05-06 19:49 48.41277 16.16815 11827 ft 263 kts 169°
2026-05-06 19:49 48.39495 16.17473 11449 ft 264 kts 169°
2026-05-06 19:49 48.37715 16.18216 11070 ft 266 kts 166°
2026-05-06 19:50 48.35942 16.19048 10697 ft 265 kts 166°
2026-05-06 19:50 48.34216 16.19890 10335 ft 257 kts 165°
2026-05-06 19:50 48.32622 16.21018 9976 ft 253 kts 147°
2026-05-06 19:50 48.31393 16.22918 9616 ft 258 kts 126°
2026-05-06 19:51 48.30687 16.25412 9225 ft 264 kts 104°
2026-05-06 19:51 48.30637 16.28172 8835 ft 268 kts 81°
2026-05-06 19:51 48.31256 16.30801 8451 ft 268 kts 60°
2026-05-06 19:51 48.32402 16.32998 8075 ft 269 kts 40°
2026-05-06 19:52 48.33951 16.34538 7694 ft 267 kts 20°
2026-05-06 19:52 48.35721 16.35256 7333 ft 262 kts
2026-05-06 19:52 48.37511 16.35126 6961 ft 252 kts 342°
2026-05-06 19:52 48.39085 16.34263 6605 ft 238 kts 325°
2026-05-06 19:53 48.40465 16.32992 6241 ft 230 kts 328°
2026-05-06 19:53 48.41942 16.32172 5992 ft 222 kts 343°
2026-05-06 19:53 48.43455 16.31709 5984 ft 225 kts 345°
2026-05-06 19:53 48.44992 16.31279 5982 ft 225 kts 346°
2026-05-06 19:54 48.46537 16.30850 5979 ft 225 kts 345°
2026-05-06 19:54 48.48079 16.30444 5979 ft 225 kts 346°
2026-05-06 19:54 48.49616 16.30038 5978 ft 224 kts 345°
2026-05-06 19:54 48.51153 16.29636 5978 ft 224 kts 345°
2026-05-06 19:55 48.52689 16.29224 5978 ft 225 kts 346°
2026-05-06 19:55 48.54228 16.28800 5976 ft 224 kts 345°
2026-05-06 19:55 48.55728 16.28318 5973 ft 221 kts 332°
2026-05-06 19:55 48.56944 16.26937 5978 ft 216 kts 309°
2026-05-06 19:56 48.57935 16.25248 5977 ft 214 kts 306°
2026-05-06 19:56 48.58897 16.23580 5984 ft 216 kts 312°
2026-05-06 19:56 48.60247 16.22525 5975 ft 228 kts 348°
2026-05-06 19:56 48.61836 16.22765 5978 ft 235 kts 22°
2026-05-06 19:57 48.63119 16.24271 5978 ft 236 kts 57°
2026-05-06 19:57 48.63808 16.26505 5983 ft 235 kts 73°
2026-05-06 19:57 48.64222 16.28891 5965 ft 234 kts 92°
2026-05-06 19:57 48.63888 16.31208 5973 ft 223 kts 124°
2026-05-06 19:58 48.62828 16.32843 5841 ft 218 kts 151°
2026-05-06 19:58 48.61543 16.34027 5581 ft 215 kts 154°
2026-05-06 19:58 48.60234 16.35113 5331 ft 214 kts 155°
2026-05-06 19:58 48.58923 16.36177 5091 ft 214 kts 156°
2026-05-06 19:59 48.57631 16.37255 4981 ft 211 kts 154°
2026-05-06 19:59 48.56341 16.38354 4978 ft 217 kts 155°
2026-05-06 19:59 48.55031 16.39459 4981 ft 220 kts 156°
2026-05-06 19:59 48.53670 16.40347 4974 ft 206 kts 165°
2026-05-06 20:00 48.52366 16.41077 5002 ft 197 kts 165°
2026-05-06 20:00 48.51080 16.41789 4989 ft 196 kts 165°
2026-05-06 20:00 48.49801 16.42487 4984 ft 195 kts 166°
2026-05-06 20:00 48.48525 16.43189 4983 ft 196 kts 166°
2026-05-06 20:01 48.47235 16.43829 4981 ft 193 kts 173°
2026-05-06 20:01 48.45938 16.43746 4990 ft 186 kts 194°
2026-05-06 20:01 48.44641 16.43850 4987 ft 194 kts 167°
2026-05-06 20:01 48.43357 16.44460 4989 ft 194 kts 170°
2026-05-06 20:02 48.42059 16.45008 4989 ft 193 kts 170°
2026-05-06 20:02 48.40768 16.45557 4990 ft 192 kts 170°
2026-05-06 20:02 48.39477 16.46107 4991 ft 193 kts 169°
2026-05-06 20:02 48.38184 16.46661 4993 ft 193 kts 169°
2026-05-06 20:03 48.36895 16.47212 4992 ft 193 kts 169°
2026-05-06 20:03 48.35597 16.47767 4993 ft 194 kts 169°
2026-05-06 20:03 48.34313 16.48316 4970 ft 195 kts 169°
2026-05-06 20:03 48.33014 16.48871 4805 ft 193 kts 170°
2026-05-06 20:04 48.31727 16.49421 4570 ft 192 kts 170°
2026-05-06 20:04 48.30449 16.49966 4319 ft 190 kts 170°
2026-05-06 20:04 48.29184 16.50506 4071 ft 188 kts 170°
2026-05-06 20:04 48.27938 16.51037 3809 ft 183 kts 171°
2026-05-06 20:05 48.26753 16.51545 3567 ft 173 kts 172°
2026-05-06 20:05 48.25612 16.52030 3349 ft 169 kts 172°
2026-05-06 20:05 48.24522 16.52496 3132 ft 155 kts 173°
2026-05-06 20:05 48.23562 16.52923 3021 ft 137 kts 172°
2026-05-06 20:06 48.22680 16.53331 2768 ft 129 kts 173°
2026-05-06 20:06 48.21833 16.53706 2515 ft 125 kts 175°
2026-05-06 20:06 48.21000 16.54046 2304 ft 126 kts 174°
2026-05-06 20:06 48.20162 16.54389 2129 ft 124 kts 173°
2026-05-06 20:07 48.19323 16.54717 2059 ft 125 kts 172°
2026-05-06 20:07 48.18490 16.55106 1952 ft 125 kts 173°
2026-05-06 20:07 48.17643 16.55460 1816 ft 128 kts 168°
2026-05-06 20:07 48.16801 16.55829 1642 ft 125 kts 172°
2026-05-06 20:08 48.15954 16.56154 1465 ft 126 kts 167°
2026-05-06 20:08 48.15098 16.56490 1297 ft 125 kts 167°
2026-05-06 20:08 48.14256 16.56849 1110 ft 128 kts 166°
2026-05-06 20:08 48.13410 16.57212 931 ft 129 kts 163°
2026-05-06 20:09 48.12568 16.57570 735 ft 125 kts 163°
2026-05-06 20:09 48.11753 16.57914 636 ft 120 kts 164°
2026-05-06 20:09 48.11012 16.58226 614 ft 97 kts 164°
2026-05-06 20:09 48.10515 16.58435 614 ft 51 kts 165°
2026-05-06 20:10 48.10299 16.58527 618 ft 25 kts 163°
2026-05-06 20:10 48.10131 16.58600 624 ft 24 kts 165°
2026-05-06 20:10 48.09986 16.58619 624 ft 19 kts 182°
2026-05-06 20:10 48.09864 16.58599 627 ft 17 kts 189°
2026-05-06 20:11 48.09751 16.58571 622 ft 16 kts 188°
2026-05-06 20:11 48.09660 16.58542 622 ft 12 kts 209°
2026-05-06 20:11 48.09634 16.58421 621 ft 13 kts 287°
2026-05-06 20:11 48.09705 16.58362 629 ft 12 kts 344°
2026-05-06 20:12 48.09782 16.58329 626 ft 11 kts 344°
2026-05-06 20:12 48.09855 16.58299 626 ft 11 kts 344°
2026-05-06 20:12 48.09931 16.58267 626 ft 15 kts 344°
2026-05-06 20:12 48.10057 16.58216 621 ft 22 kts 346°
2026-05-06 20:13 48.10208 16.58148 622 ft 21 kts 343°
2026-05-06 20:13 48.10328 16.58099 617 ft 17 kts 345°
2026-05-06 20:13 48.10427 16.58058 623 ft 14 kts 345°
2026-05-06 20:13 48.10518 16.58021 620 ft 13 kts 344°
2026-05-06 20:14 48.10605 16.57981 621 ft 15 kts 344°
2026-05-06 20:14 48.10704 16.57940 628 ft 14 kts 344°
2026-05-06 20:14 48.10799 16.57900 624 ft 14 kts 344°
2026-05-06 20:14 48.10889 16.57862 623 ft 12 kts 343°
2026-05-06 20:15 48.10963 16.57829 621 ft 11 kts 343°
2026-05-06 20:15 48.11036 16.57797 620 ft 11 kts 343°
2026-05-06 20:15 48.11052 16.57782 617 ft 2 kts 302°
2026-05-06 20:15 48.11058 16.57744 619 ft 3 kts 287°
2026-05-06 20:16 48.11076 16.57685 626 ft 11 kts 297°
2026-05-06 20:16 48.11112 16.57577 616 ft 11 kts 295°
2026-05-06 20:16 48.11154 16.57443 620 ft 20 kts 296°
2026-05-06 20:16 48.11206 16.57286 629 ft 15 kts 296°
2026-05-06 20:17 48.11248 16.57158 626 ft 13 kts 296°
2026-05-06 20:17 48.11287 16.57039 631 ft 12 kts 296°
2026-05-06 20:17 48.11322 16.56931 628 ft 12 kts 296°
2026-05-06 20:17 48.11371 16.56817 626 ft 11 kts 336°
2026-05-06 20:18 48.11443 16.56856 618 ft 12 kts 26°
2026-05-06 20:18 48.11523 16.56911 610 ft 14 kts 24°
2026-05-06 20:18 48.11600 16.56857 611 ft 14 kts 298°
2026-05-06 20:18 48.11630 16.56764 609 ft 5 kts 295°
2026-05-06 20:19 48.11660 16.56755 605 ft 6 kts 25°
2026-05-06 20:19 48.11704 16.56785 603 ft 8 kts 26°
2026-05-06 20:19 48.11717 16.56794 603 ft 0 kts 25°